Location: Andershausen
(51.8462°N, 9.8595°E)
Time: 09:51:00
(UTC+00:00)

SAR-Lupe-4 - Pass Details

Date: 18 November 2025
Orbit: 476 x 483 km, 98.1° (Epoch: 03 October)

Event Time Altitude Azimuth Distance (km) Brightness Sun altitude
Rises 16:15:18 0° 151° (SSE) 2,537 7.1 -7.7°
Reaches altitude 10° 16:17:23 10° 147° (SSE) 1,661 6.2 -8.0°
Maximum altitude 16:20:52 51° 70° (ENE) 613 3.7 -8.5°
Drops below altitude 10° 16:24:21 10° 354° (N) 1,672 6.1 -9.0°
Sets 16:26:27 0° 350° (N) 2,555 7.1 -9.3°
